Harare Kutsaga, Zimbabwe

1:50 PM CAT on January 20, 2018 (GMT +0200)
Harare Kutsaga

Weather History for FVHA - April, 2013

Change the Weather History Date:

Thursday, April 25, 2013

  Actual Average Record
Temperature  
Mean Temperature 61 °F -  
Max Temperature 71 °F 75 °F 84 °F (2005)
Min Temperature 51 °F 49 °F 50 °F (2003)
Degree Days  
Heating Degree Days 4    
Growing Degree Days 11 (Base 50)    
Moisture  
Dew Point 52 °F    
Average Humidity 75    
Maximum Humidity 100    
Minimum Humidity 41    
Precipitation  
Precipitation 0.00 in 0.02 in - ()
Sea Level Pressure  
Sea Level Pressure 30.36 in    
Wind  
Wind Speed 7 mph ()    
Max Wind Speed 13 mph    
Max Gust Speed -    
Visibility 8.2 miles    
Events      
Averages and records for this station are not official NWS values.
T = Trace of Precipitation, MM = Missing Value Source: Averaged Metar Reports

Daily Weather History Graph

Daily Weather History Graph

Search for Another Location

Airport or City:

Trip Planner

Search our weather history database for the weather conditions in past years. The results will help you decide how hot, cold, wet, or windy it might be!

Date:

Astronomy

Apr. 25, 2013 Rise Set
Actual Time 6:07 AM CAT 5:39 PM CAT
Civil Twilight 5:45 AM CAT 6:01 PM CAT
Nautical Twilight 5:19 AM CAT 6:27 PM CAT
Astronomical Twilight 4:53 AM CAT 6:52 PM CAT
Moon 5:24 PM CAT (4/25) 5:30 AM CAT (4/25)
Length of Visible Light 12h 16m
Length of Day
11h 32m
Full, 100% of the Moon is Illuminated
Apr 25
Full
Apr 25
Full
May 2
Last Quarter
May 10
New
May 18
First Quarter

Hourly Weather History & Observations

Time (CAT) Temp. Dew Point Humidity Pressure Visibility Wind Dir Wind Speed Gust Speed Precip Events Conditions
12:00 AM 55.4 °F 55.4 °F 100% 30.36 in - SE 6.9 mph - N/A   Clear
1:00 AM 55.4 °F 53.6 °F 94% 30.36 in - SE 6.9 mph - N/A   Clear
2:00 AM 56 °F 54 °F 91%  in 19 mi SE 9.2 mph - -   Scattered Clouds
2:00 AM 55.4 °F 53.6 °F 94% 30.36 in 6.2 mi SE 9.2 mph - N/A   Partly Cloudy
6:00 AM 51.8 °F 51.8 °F 100% 30.36 in 6.2 mi SE 4.6 mph - N/A   Partly Cloudy
7:00 AM 53.6 °F 53.6 °F 100% 30.39 in 6.2 mi SE 4.6 mph - N/A   Partly Cloudy
8:00 AM 58 °F 54 °F 83%  in 12 mi SE 9.2 mph - -   Haze
8:00 AM 57.2 °F 53.6 °F 88% 30.39 in 6.2 mi SE 9.2 mph - N/A   Partly Cloudy
9:00 AM 60.8 °F 51.8 °F 72% 30.42 in 6.2 mi SSE 11.5 mph - N/A   Partly Cloudy
10:00 AM 64.4 °F 51.8 °F 64% 30.42 in 6.2 mi SE 12.7 mph - N/A   Partly Cloudy
11:00 AM 66.2 °F 51.8 °F 60% 30.39 in 6.2 mi SSE 11.5 mph - N/A   Partly Cloudy
12:00 PM 68.0 °F 51.8 °F 56% 30.36 in 6.2 mi SE 8.1 mph - N/A   Scattered Clouds
1:00 PM 68.0 °F 50.0 °F 52% 30.33 in 6.2 mi SSE 9.2 mph - N/A   Scattered Clouds
2:00 PM 70 °F 51 °F 41%  in 19 mi SSE 10.4 mph - -   Partly Cloudy
2:00 PM 69.8 °F 51.8 °F 53% 30.33 in 6.2 mi SSE 10.4 mph - N/A   Scattered Clouds
4:00 PM 69.8 °F 51.8 °F 53% 30.30 in 6.2 mi South 8.1 mph - N/A   Scattered Clouds
5:00 PM 66.2 °F 51.8 °F 60% 30.30 in 6.2 mi South 8.1 mph - N/A   Partly Cloudy
6:00 PM 62.6 °F 50.0 °F 63% 30.33 in 6.2 mi South 9.2 mph - N/A   Partly Cloudy
7:00 PM 59.0 °F 50.0 °F 72% 30.33 in 6.2 mi South 5.8 mph - N/A   Partly Cloudy
8:00 PM 57 °F 51 °F 72%  in 19 mi SSE 4.6 mph - -   Scattered Clouds
8:00 PM 57.2 °F 50.0 °F 77% 30.36 in 6.2 mi SSE 4.6 mph - N/A   Partly Cloudy
9:00 PM 55.4 °F 50.0 °F 82% 30.36 in 6.2 mi SE 4.6 mph - N/A   Partly Cloudy
10:00 PM 53.6 °F 50.0 °F 88% 30.36 in 6.2 mi SE 3.5 mph - N/A   Scattered Clouds
11:00 PM 55.4 °F 51.8 °F 88% 30.36 in 6.2 mi SE 6.9 mph - N/A   Scattered Clouds